Temp
0 -0 0 0 0 -0 -1 -1 -1 -1 -2 -2 -3 -3 -3 -3 -4 -5 -6 -6 -7 -7 -8 -9 -10 -11 -12 -13 -14 -14 -15 -15 -15 -16 -16 -17 -16 -17 -17 -16 -17 -17 -16 -15 -15 -14 -14 -16 -15 -17 -18 -17 -17 -17
0 0 -0 0 -0 -0 -1 -1 -1 -1 -2 -2 -3 -3 -3 -4 -5 -6 -6 -7 -7 -8 -8 -9 -10 -11 -12 -13 -14 -14 -15 -15 -16 -17 -17 -17 -17 -17 -17 -16 -17 -16 -18 -18 -17 -16 -16 -17 -16 -16 -17 -16 -16 -16
0 0 -0 -0 -0 -1 -1 -1 -2 -2 -2 -3 -3 -3 -4 -4 -5 -7 -6 -7 -7 -8 -9 -10 -11 -12 -12 -13 -14 -15 -15 -16 -16 -16 -17 -17 -18 -17 -17 -17 -17 -17 -18 -18 -17 -17 -16 -16 -16 -16 -16 -15 -15 -15
0 -0 -0 -0 -1 -1 -1 -1 -2 -3 -3 -3 -3 -4 -4 -5 -7 -7 -7 -7 -8 -9 -10 -10 -11 -12 -12 -13 -14 -15 -15 -16 -16 -16 -17 -17 -18 -17 -17 -17 -17 -17 -18 -18 -17 -17 -16 -15 -16 -15 -15 -15 -14 -15
-0 -0 -0 -0 -1 -1 -1 -2 -2 -3 -3 -4 -4 -4 -4 -6 -7 -7 -8 -8 -8 -9 -10 -10 -11 -12 -13 -13 -14 -14 -15 -16 -16 -16 -17 -17 -17 -17 -17 -17 -17 -18 -18 -18 -18 -18 -17 -16 -15 -14 -15 -14 -14 -14
-0 -0 -1 -0 -1 -1 -1 -2 -3 -3 -4 -4 -4 -5 -5 -7 -7 -8 -8 -8 -9 -10 -10 -11 -11 -12 -13 -14 -14 -15 -15 -15 -16 -17 -17 -17 -17 -18 -18 -19 -16 -17 -18 -19 -18 -17 -17 -16 -15 -15 -15 -14 -14 -14
-0 -0 -1 -1 -1 -2 -2 -3 -3 -4 -4 -4 -5 -5 -7 -8 -8 -9 -9 -9 -9 -10 -11 -11 -12 -13 -13 -14 -15 -15 -15 -16 -16 -17 -16 -17 -17 -18 -18 -17 -17 -18 -18 -18 -17 -16 -16 -16 -15 -15 -15 -15 -15 -15
-0 -0 -1 -1 -2 -2 -3 -4 -4 -4 -4 -5 -5 -6 -8 -8 -8 -9 -9 -10 -10 -11 -11 -12 -12 -13 -14 -14 -15 -15 -15 -16 -16 -17 -17 -17 -17 -17 -17 -17 -18 -18 -18 -18 -18 -17 -16 -16 -16 -15 -15 -15 -15 -15
-0 -1 -1 -2 -3 -4 -4 -4 -4 -5 -5 -5 -5 -7 -8 -8 -8 -9 -9 -10 -10 -11 -11 -12 -13 -13 -14 -15 -15 -16 -16 -17 -17 -17 -17 -17 -17 -17 -17 -18 -18 -18 -18 -18 -18 -17 -17 -16 -16 -16 -15 -15 -15 -14
-0 -1 -2 -3 -4 -4 -5 -5 -5 -5 -5 -6 -7 -8 -8 -9 -9 -10 -10 -11 -11 -11 -12 -12 -13 -14 -15 -16 -16 -17 -17 -18 -18 -17 -17 -17 -16 -16 -17 -18 -18 -18 -18 -18 -18 -18 -17 -17 -16 -16 -16 -15 -15 -15
-1 -2 -3 -4 -5 -5 -5 -6 -6 -6 -6 -7 -8 -8 -10 -10 -10 -10 -11 -11 -11 -12 -12 -13 -13 -14 -15 -16 -16 -17 -17 -17 -18 -18 -17 -18 -16 -16 -17 -17 -18 -18 -18 -18 -18 -18 -17 -17 -16 -16 -16 -16 -15 -15
-2 -3 -4 -5 -6 -6 -6 -6 -6 -7 -8 -8 -8 -10 -10 -10 -11 -11 -11 -11 -11 -12 -13 -13 -14 -15 -15 -16 -17 -17 -17 -17 -18 -18 -17 -17 -16 -16 -17 -17 -17 -18 -18 -18 -18 -17 -17 -16 -16 -16 -16 -15 -15 -15
-3 -4 -5 -6 -6 -7 -7 -7 -8 -8 -8 -9 -10 -11 -10 -10 -11 -11 -11 -11 -12 -12 -13 -14 -14 -15 -15 -16 -17 -17 -17 -18 -18 -18 -17 -15 -16 -16 -16 -17 -17 -17 -18 -17 -17 -17 -17 -16 -16 -16 -16 -16 -16 -15
-4 -5 -6 -6 -7 -7 -7 -8 -8 -9 -9 -10 -11 -10 -10 -10 -10 -10 -11 -12 -12 -13 -14 -14 -15 -15 -16 -17 -17 -17 -18 -18 -18 -17 -16 -15 -15 -16 -16 -16 -17 -17 -17 -17 -17 -17 -16 -16 -16 -16 -16 -16 -16 -16
-5 -6 -6 -7 -7 -8 -8 -9 -9 -9 -11 -12 -10 -10 -10 -10 -10 -11 -11 -12 -13 -13 -14 -14 -15 -16 -17 -17 -17 -17 -18 -17 -17 -16 -15 -15 -16 -16 -16 -16 -16 -17 -17 -17 -17 -17 -16 -16 -17 -16 -16 -16 -16 -16
-6 -7 -7 -8 -8 -9 -9 -10 -9 -11 -13 -11 -10 -10 -10 -10 -11 -11 -12 -12 -13 -14 -14 -15 -15 -17 -17 -17 -17 -17 -18 -16 -16 -15 -16 -15 -16 -16 -16 -16 -16 -16 -17 -17 -17 -17 -17 -17 -17 -17 -16 -16 -16 -16
-7 -7 -7 -8 -9 -9 -10 -10 -11 -13 -11 -10 -10 -10 -10 -11 -11 -12 -12 -13 -13 -14 -15 -15 -16 -16 -17 -17 -17 -17 -16 -16 -16 -16 -16 -16 -16 -16 -16 -17 -16 -16 -17 -17 -17 -17 -17 -17 -17 -17 -17 -17 -17 -16
-7 -8 -8 -8 -9 -10 -10 -11 -14 -12 -11 -10 -10 -10 -11 -11 -12 -12 -13 -13 -14 -15 -15 -16 -16 -16 -16 -16 -16 -16 -16 -16 -16 -16 -16 -16 -16 -16 -16 -17 -17 -17 -17 -17 -17 -17 -17 -17 -17 -17 -17 -17 -17 -17
-8 -8 -9 -9 -10 -10 -12 -14 -13 -11 -10 -10 -11 -11 -11 -12 -12 -13 -13 -14 -14 -15 -16 -16 -16 -16 -16 -16 -17 -17 -17 -17 -17 -17 -17 -17 -17 -17 -17 -17 -17 -17 -17 -17 -17 -17 -17 -17 -17 -17 -17 -17 -16 -16
-9 -10 -9 -10 -11 -14 -13 -12 -12 -11 -10 -11 -11 -11 -12 -12 -13 -13 -14 -14 -15 -15 -15 -15 -15 -16 -17 -17 -17 -17 -18 -18 -18 -17 -17 -17 -17 -17 -17 -17 -17 -17 -16 -17 -17 -17 -17 -17 -16 -17 -17 -17 -16 -16
-9 -11 -11 -11 -13 -14 -13 -11 -11 -11 -11 -11 -11 -12 -12 -12 -13 -14 -14 -14 -14 -14 -15 -15 -16 -17 -17 -17 -17 -17 -18 -18 -18 -18 -17 -17 -17 -17 -17 -17 -17 -17 -17 -17 -16 -17 -17 -16 -16 -16 -17 -17 -17 -16
-11 -11 -12 -13 -13 -12 -12 -11 -11 -11 -12 -12 -12 -12 -12 -13 -13 -14 -14 -14 -13 -15 -15 -16 -17 -17 -17 -17 -17 -18 -18 -19 -19 -18 -18 -18 -18 -18 -18 -17 -17 -17 -17 -17 -17 -17 -16 -16 -17 -17 -17 -16 -16 -16
-11 -12 -12 -12 -12 -12 -12 -12 -12 -12 -12 -12 -12 -13 -13 -13 -14 -14 -14 -14 -14 -15 -16 -16 -17 -17 -17 -17 -18 -18 -19 -19 -19 -19 -18 -18 -18 -18 -18 -18 -17 -17 -17 -17 -17 -17 -17 -17 -17 -17 -16 -16 -16 -16
-12 -12 -12 -12 -12 -12 -12 -12 -12 -12 -12 -12 -13 -13 -14 -14 -14 -14 -14 -14 -15 -15 -16 -17 -17 -17 -18 -18 -18 -18 -19 -19 -19 -19 -19 -19 -18 -18 -18 -18 -18 -17 -17 -17 -17 -17 -17 -17 -17 -17 -17 -16 -16 -17
-12 -12 -12 -12 -12 -12 -12 -12 -12 -12 -13 -13 -14 -14 -14 -15 -15 -15 -15 -15 -15 -16 -17 -17 -17 -18 -18 -18 -18 -18 -19 -19 -19 -19 -19 -19 -18 -18 -18 -18 -18 -17 -17 -17 -17 -17 -17 -17 -17 -17 -17 -17 -16 -16
-11 -12 -11 -11 -12 -12 -12 -12 -12 -13 -14 -14 -15 -15 -15 -16 -16 -16 -16 -16 -16 -17 -17 -18 -18 -18 -18 -18 -18 -19 -19 -19 -19 -19 -19 -19 -19 -18 -18 -18 -18 -17 -17 -17 -17 -17 -17 -17 -17 -17 -17 -17 -17 -16
-11 -11 -11 -12 -12 -12 -13 -13 -13 -14 -15 -15 -15 -16 -17 -17 -17 -16 -17 -17 -17 -18 -18 -18 -18 -18 -18 -18 -19 -19 -19 -19 -19 -19 -19 -19 -19 -18 -18 -19 -18 -18 -18 -18 -17 -17 -18 -17 -17 -17 -17 -17 -17 -17
-11 -12 -12 -12 -13 -13 -14 -14 -15 -15 -15 -16 -16 -17 -17 -17 -17 -17 -18 -18 -19 -19 -19 -19 -19 -19 -19 -19 -19 -19 -20 -20 -20 -20 -19 -19 -19 -19 -19 -19 -19 -18 -18 -17 -18 -18 -17 -17 -17 -17 -17 -17 -17 -17
-12 -12 -13 -13 -14 -14 -15 -15 -15 -16 -16 -17 -17 -18 -18 -18 -18 -19 -19 -19 -19 -19 -19 -19 -19 -19 -19 -19 -19 -19 -20 -20 -20 -20 -20 -19 -19 -19 -19 -19 -19 -18 -18 -18 -18 -18 -18 -17 -17 -17 -17 -17 -17 -17
-13 -13 -14 -14 -14 -15 -15 -15 -16 -17 -17 -17 -18 -18 -18 -18 -18 -19 -19 -19 -19 -19 -19 -19 -19 -20 -20 -19 -19 -19 -20 -20 -20 -20 -20 -19 -19 -19 -19 -19 -19 -19 -19 -18 -18 -18 -18 -18 -18 -18 -17 -17 -17 -17
-13 -13 -14 -14 -14 -15 -15 -16 -16 -16 -17 -17 -18 -18 -18 -18 -18 -18 -18 -18 -18 -18 -18 -19 -19 -19 -20 -20 -20 -20 -20 -20 -20 -20 -20 -20 -19 -19 -19 -19 -19 -19 -19 -19 -19 -18 -18 -18 -18 -18 -18 -17 -17 -17
-13 -14 -14 -14 -15 -15 -15 -16 -16 -17 -17 -17 -17 -17 -18 -18 -18 -18 -18 -18 -18 -18 -18 -18 -19 -19 -20 -20 -20 -20 -20 -20 -20 -20 -20 -20 -20 -19 -19 -19 -19 -19 -19 -19 -19 -18 -19 -19 -19 -18 -18 -18 -18 -17
-14 -14 -14 -15 -15 -15 -16 -16 -16 -16 -16 -17 -17 -17 -18 -18 -18 -19 -19 -19 -19 -19 -19 -19 -19 -19 -20 -20 -20 -20 -20 -20 -20 -20 -20 -20 -20 -20 -19 -19 -20 -20 -19 -19 -19 -19 -19 -19 -19 -19 -19 -19 -18 -18
Height
3074 3078 3080 3083 3084 3086 3087 3087 3087 3087 3086 3085 3083 3082 3080 3077 3074 3071 3068 3064 3061 3057 3053 3051 3048 3046 3043 3041 3039 3037 3035 3031 3028 3025 3025 3024 3020 3017 3013 3012 3008 3006 3001 2997 2994 2989 2986 2980 2974 2968 2970 2963 2956 2952
3068 3072 3074 3076 3078 3079 3080 3081 3081 3080 3080 3080 3078 3076 3075 3072 3069 3067 3064 3061 3058 3055 3052 3048 3045 3043 3042 3039 3038 3036 3035 3032 3030 3028 3026 3023 3022 3018 3014 3011 3007 3007 3007 3003 3001 2995 2991 2985 2980 2975 2968 2961 2955 2949
3061 3064 3067 3069 3071 3073 3074 3074 3074 3075 3074 3074 3073 3072 3070 3067 3065 3064 3061 3058 3054 3051 3048 3045 3043 3041 3040 3038 3037 3036 3033 3032 3030 3028 3027 3024 3022 3017 3015 3011 3007 3004 3001 2998 2996 2991 2988 2984 2980 2977 2970 2963 2957 2950
3052 3055 3059 3062 3064 3066 3067 3068 3068 3069 3069 3069 3068 3067 3065 3063 3061 3060 3058 3056 3052 3049 3046 3044 3041 3040 3038 3036 3035 3034 3032 3030 3029 3027 3025 3023 3020 3016 3012 3008 3003 3001 2997 2994 2992 2988 2986 2982 2978 2973 2970 2965 2961 2954
3045 3047 3052 3054 3056 3058 3060 3061 3062 3063 3064 3064 3063 3062 3060 3058 3057 3056 3055 3053 3050 3050 3044 3041 3039 3038 3036 3034 3033 3031 3028 3027 3025 3024 3022 3020 3017 3013 3007 3003 2998 2995 2993 2992 2989 2987 2983 2980 2975 2970 2967 2964 2960 2956
3035 3039 3043 3046 3048 3050 3053 3054 3056 3057 3057 3058 3057 3056 3055 3054 3053 3052 3051 3049 3046 3044 3041 3040 3038 3035 3034 3033 3031 3028 3026 3023 3022 3020 3017 3014 3014 3012 3005 3000 2996 2993 2990 2987 2984 2982 2980 2978 2974 2970 2966 2962 2960 2955
3025 3029 3033 3036 3039 3042 3044 3047 3049 3050 3051 3051 3051 3050 3049 3049 3048 3048 3048 3046 3043 3041 3039 3037 3035 3034 3032 3031 3029 3027 3025 3022 3020 3017 3014 3011 3009 3009 3002 2997 2993 2990 2986 2982 2980 2978 2979 2975 2973 2971 2969 2965 2961 2957
3015 3019 3023 3026 3030 3033 3037 3039 3041 3043 3045 3045 3046 3045 3045 3044 3043 3043 3042 3041 3039 3037 3036 3035 3034 3033 3032 3030 3028 3024 3020 3017 3014 3013 3012 3010 3006 3003 2997 2995 2991 2986 2982 2979 2977 2976 2975 2974 2973 2972 2970 2967 2964 2961
3006 3009 3013 3017 3021 3026 3030 3032 3035 3038 3039 3040 3040 3039 3040 3040 3039 3038 3037 3035 3034 3037 3034 3032 3032 3031 3028 3027 3024 3021 3015 3011 3008 3007 3006 3007 3002 2999 2996 2992 2987 2983 2980 2977 2976 2975 2974 2974 2973 2973 2971 2969 2966 2963
2996 3001 3005 3010 3014 3019 3023 3026 3031 3032 3034 3034 3034 3036 3035 3036 3035 3036 3031 3031 3030 3031 3030 3029 3028 3028 3027 3023 3018 3018 3012 3010 3007 3005 3002 2999 2996 2996 2993 2990 2985 2982 2979 2977 2976 2976 2975 2974 2974 2974 2972 2970 2968 2966
2989 2994 2999 3004 3010 3014 3017 3022 3024 3026 3028 3029 3029 3031 3033 3032 3032 3029 3028 3029 3029 3029 3028 3027 3026 3023 3020 3018 3016 3015 3011 3009 3007 3006 3003 2997 2993 2993 2991 2988 2985 2982 2980 2979 2978 2978 2977 2976 2975 2975 2973 2971 2969 2967
2984 2989 2994 3000 3005 3009 3013 3016 3019 3021 3022 3025 3027 3028 3029 3030 3027 3029 3026 3027 3026 3026 3025 3025 3023 3019 3016 3013 3010 3009 3009 3007 3004 3001 3000 2994 2992 2991 2989 2987 2986 2983 2982 2981 2980 2979 2978 2976 2976 2975 2974 2971 2970 2969
2979 2984 2990 2995 3000 3006 3008 3012 3014 3016 3018 3020 3023 3027 3026 3026 3024 3022 3024 3024 3024 3022 3021 3021 3019 3016 3011 3011 3010 3009 3006 3005 3003 2999 2994 2991 2990 2989 2988 2987 2985 2984 2983 2982 2981 2980 2979 2977 2977 2976 2974 2973 2971 2970
2976 2982 2987 2992 2997 3000 3005 3007 3009 3013 3016 3018 3021 3022 3021 3021 3020 3019 3020 3021 3021 3019 3017 3015 3014 3013 3010 3009 3008 3007 3005 3002 3000 2996 2991 2989 2989 2988 2987 2986 2985 2984 2983 2982 2982 2981 2980 2979 2978 2977 2976 2974 2973 2972
2975 2979 2985 2989 2992 2997 3000 3003 3007 3010 3012 3016 3017 3016 3015 3016 3017 3017 3017 3016 3015 3014 3012 3011 3009 3008 3008 3008 3006 3004 3002 2997 2994 2991 2989 2988 2987 2987 2986 2985 2985 2984 2983 2983 2982 2981 2981 2980 2980 2979 2977 2976 2975 2974
2970 2977 2980 2983 2989 2992 2996 3001 3005 3006 3009 3013 3012 3011 3012 3014 3014 3014 3014 3013 3013 3011 3009 3007 3006 3004 3004 3004 3002 3000 2997 2992 2990 2989 2988 2986 2986 2985 2985 2984 2984 2983 2983 2982 2982 2981 2981 2980 2980 2979 2979 2978 2977 2976
2966 2972 2976 2982 2984 2990 2995 2999 3001 3005 3008 3007 3006 3007 3009 3011 3011 3010 3010 3010 3008 3008 3006 3005 3005 3004 3001 2998 2994 2993 2991 2990 2988 2987 2985 2984 2984 2983 2983 2982 2982 2982 2982 2981 2981 2981 2981 2980 2980 2980 2980 2979 2979 2978
2969 2972 2974 2978 2983 2988 2993 2996 3001 3003 3002 3002 3003 3005 3006 3008 3008 3007 3007 3006 3005 3003 3002 3002 3001 2998 2998 2993 2990 2989 2988 2986 2985 2983 2982 2981 2981 2981 2981 2981 2981 2981 2981 2981 2981 2981 2981 2980 2980 2980 2980 2980 2980 2980
2967 2970 2973 2975 2983 2988 2990 2995 2999 2998 2998 2999 3000 3001 3002 3004 3004 3004 3003 3002 3001 2999 2997 2995 2994 2990 2990 2989 2986 2983 2981 2980 2979 2979 2978 2977 2977 2978 2978 2979 2979 2979 2979 2980 2980 2980 2980 2980 2980 2979 2980 2980 2981 2982
2964 2969 2970 2976 2982 2986 2991 2993 2996 2996 2995 2997 2996 2997 2999 3000 2999 2998 2998 2997 2996 2993 2991 2988 2987 2985 2983 2982 2979 2977 2974 2973 2972 2972 2973 2973 2973 2974 2975 2976 2977 2977 2977 2978 2978 2977 2978 2978 2978 2979 2979 2980 2981 2983
2963 2969 2972 2975 2980 2987 2990 2990 2991 2992 2993 2994 2995 2995 2996 2995 2994 2994 2992 2990 2988 2986 2984 2983 2981 2978 2976 2975 2972 2970 2967 2965 2965 2965 2966 2967 2968 2970 2971 2972 2974 2974 2974 2974 2974 2975 2975 2976 2977 2978 2978 2979 2981 2983
2966 2970 2972 2977 2983 2985 2987 2988 2989 2990 2991 2991 2993 2993 2991 2990 2989 2988 2988 2985 2981 2980 2978 2976 2974 2971 2969 2967 2965 2962 2959 2958 2958 2959 2960 2961 2963 2965 2967 2969 2970 2971 2971 2971 2971 2972 2973 2974 2974 2976 2977 2979 2980 2982
2970 2972 2978 2981 2981 2982 2985 2985 2986 2986 2988 2990 2990 2989 2988 2986 2985 2984 2981 2979 2976 2974 2971 2969 2967 2965 2963 2961 2957 2954 2951 2950 2952 2954 2955 2957 2959 2961 2963 2965 2967 2968 2968 2968 2968 2969 2970 2971 2972 2973 2975 2977 2979 2981
2972 2975 2976 2977 2977 2979 2981 2981 2981 2983 2984 2986 2986 2986 2984 2981 2979 2977 2975 2973 2971 2968 2966 2964 2962 2960 2957 2954 2950 2946 2944 2945 2947 2949 2951 2953 2956 2958 2960 2962 2963 2965 2965 2965 2966 2967 2967 2969 2970 2972 2973 2976 2978 2981
2972 2974 2975 2974 2976 2977 2977 2976 2978 2980 2982 2983 2983 2981 2978 2977 2974 2971 2968 2967 2965 2963 2961 2960 2957 2955 2951 2948 2944 2941 2941 2942 2944 2945 2948 2950 2952 2955 2957 2959 2961 2962 2963 2963 2964 2964 2965 2967 2968 2970 2972 2974 2977 2979
2968 2969 2971 2970 2971 2973 2974 2976 2977 2978 2979 2979 2977 2975 2973 2971 2968 2964 2961 2961 2960 2958 2957 2955 2953 2950 2947 2944 2941 2939 2939 2939 2941 2942 2944 2947 2949 2952 2954 2956 2957 2959 2960 2960 2961 2962 2963 2965 2966 2968 2971 2973 2976 2978
2965 2967 2968 2969 2971 2972 2973 2974 2974 2974 2974 2973 2971 2969 2967 2964 2960 2958 2957 2956 2956 2954 2952 2950 2948 2946 2944 2941 2939 2936 2936 2936 2937 2939 2941 2943 2946 2949 2951 2953 2954 2956 2957 2958 2959 2960 2961 2962 2964 2967 2970 2972 2974 2976
2965 2966 2968 2968 2969 2970 2970 2970 2969 2969 2968 2967 2965 2964 2962 2959 2957 2956 2954 2952 2950 2949 2947 2946 2944 2943 2941 2939 2937 2935 2934 2934 2934 2936 2938 2941 2943 2946 2948 2950 2952 2953 2955 2956 2958 2959 2960 2962 2963 2966 2968 2970 2972 2974
2963 2964 2965 2965 2965 2965 2964 2964 2964 2963 2963 2961 2959 2957 2954 2952 2951 2948 2946 2944 2943 2942 2941 2940 2939 2938 2937 2936 2935 2934 2933 2933 2934 2935 2937 2939 2941 2944 2945 2947 2949 2951 2953 2955 2956 2957 2959 2960 2962 2964 2966 2968 2970 2972
2961 2961 2961 2961 2961 2960 2961 2960 2959 2957 2956 2954 2952 2950 2948 2946 2944 2941 2939 2937 2936 2934 2933 2933 2932 2933 2932 2932 2932 2931 2931 2931 2932 2933 2934 2936 2938 2941 2943 2945 2946 2948 2951 2953 2955 2956 2958 2959 2961 2963 2965 2967 2968 2971
2957 2957 2958 2957 2957 2956 2956 2955 2953 2952 2950 2948 2946 2944 2942 2940 2938 2935 2932 2930 2929 2927 2926 2926 2925 2926 2927 2927 2927 2928 2928 2928 2929 2930 2932 2933 2935 2938 2940 2942 2944 2946 2948 2950 2952 2954 2956 2957 2959 2961 2963 2965 2967 2969
2954 2954 2954 2954 2953 2953 2951 2950 2948 2946 2945 2943 2941 2939 2937 2935 2932 2931 2929 2927 2925 2923 2921 2920 2919 2919 2920 2921 2922 2923 2924 2925 2926 2927 2928 2930 2932 2934 2936 2938 2940 2942 2945 2947 2949 2951 2953 2954 2957 2959 2961 2962 2964 2966
2951 2951 2951 2950 2949 2948 2947 2946 2943 2941 2939 2937 2935 2934 2932 2931 2928 2927 2925 2923 2922 2920 2918 2917 2915 2915 2915 2916 2917 2918 2919 2921 2922 2923 2924 2926 2927 2929 2931 2934 2936 2938 2940 2943 2945 2947 2949 2951 2953 2955 2957 2959 2961 2963
Wind_Speed
30 28 31 28 30 30 29 28 28 26 27 25 26 25 24 25 24 21 19 21 22 23 19 22 13 16 15 13 12 12 11 13 11 9 6 7 7 9 10 18 10 11 12 12 11 7 5 31 32 31 33 35 33 30
36 35 34 33 32 31 28 29 31 28 25 25 23 23 23 24 22 18 18 19 21 22 20 16 16 16 14 12 9 11 9 10 8 8 7 6 9 8 16 9 15 4 16 12 6 12 15 28 23 32 32 32 31 30
39 41 39 36 34 33 34 31 30 27 24 23 21 22 22 22 19 17 17 18 21 20 20 12 15 15 12 9 9 10 10 10 10 10 11 8 9 12 11 15 18 18 20 16 15 13 18 18 27 27 26 27 27 26
40 45 40 36 32 33 30 27 31 26 25 21 22 21 22 21 16 17 14 17 20 19 13 14 15 11 10 8 9 10 10 12 12 11 12 13 12 16 17 22 25 19 16 15 16 15 19 17 24 26 22 21 19 20
50 40 45 41 39 40 38 33 32 28 23 21 21 21 21 17 16 16 13 17 15 17 18 13 12 10 8 9 9 9 12 14 15 15 15 17 21 20 23 23 21 20 17 15 16 20 22 21 23 23 21 19 20 20
42 37 43 45 47 43 42 39 34 27 23 22 20 20 18 17 16 13 16 13 17 19 14 10 10 7 9 8 7 9 13 15 15 16 18 19 18 20 15 15 23 20 20 20 20 19 18 19 19 19 18 17 18 20
45 45 43 39 36 35 38 40 34 28 25 21 21 20 17 16 14 11 14 17 19 15 9 8 5 7 10 9 9 12 16 17 16 18 20 19 19 19 24 25 19 25 24 21 17 13 10 15 13 12 12 13 16 18
40 39 40 40 33 28 35 38 34 29 24 21 21 19 17 17 12 13 15 17 17 10 8 5 6 9 12 13 15 18 21 20 20 17 19 19 20 19 13 14 24 23 19 16 12 8 7 7 6 7 9 11 12 14
38 39 39 34 25 25 33 36 33 25 23 21 20 17 17 14 11 13 16 17 11 8 6 5 8 11 12 15 18 21 20 17 14 13 15 13 18 12 16 21 21 16 12 8 6 4 3 3 4 6 8 10 11 11
39 37 36 27 19 24 32 33 25 24 21 20 18 17 14 10 10 15 17 7 5 7 8 9 8 13 18 19 20 16 9 5 6 12 12 10 16 11 15 16 13 9 6 3 2 2 1 2 4 5 6 7 8 9
36 34 27 21 19 25 27 24 25 21 20 19 19 15 11 11 13 11 4 3 3 4 5 7 13 20 21 21 22 9 5 5 4 7 6 6 9 11 12 10 8 5 3 3 3 2 1 2 2 4 5 7 8 9
33 29 25 20 23 24 22 24 20 19 19 19 13 10 8 10 6 4 3 2 4 3 7 14 20 21 24 18 6 5 5 4 6 7 6 5 7 11 9 7 5 4 3 2 2 1 1 2 2 3 4 5 6 6
29 27 23 22 21 21 24 20 19 22 21 16 9 5 6 6 7 5 4 4 5 12 15 18 20 22 12 5 5 4 4 6 7 5 5 7 9 9 7 6 4 3 2 2 1 1 2 3 2 3 4 5 5 6
26 23 24 22 23 24 21 21 21 22 19 12 6 7 6 6 6 5 6 10 11 13 14 15 17 13 12 6 5 4 6 5 5 5 6 7 8 7 5 5 5 4 3 3 2 1 1 2 3 3 4 5 5 5
24 25 24 25 25 21 21 22 24 23 15 8 6 6 9 8 7 7 9 10 11 12 12 14 15 10 7 6 4 5 5 5 7 7 8 8 8 8 5 5 6 6 5 4 3 3 2 1 2 3 4 4 4 4
29 27 29 28 22 23 23 25 26 18 14 9 8 7 5 8 9 10 10 11 11 11 11 11 7 4 5 5 5 7 5 7 7 8 9 10 8 8 7 6 6 6 6 5 4 4 3 2 2 1 2 2 2 3
32 33 30 25 25 26 28 28 21 16 10 9 8 11 10 10 10 10 11 12 12 11 10 7 5 4 5 7 8 10 15 16 15 13 12 11 10 8 8 7 6 6 6 5 3 4 4 3 2 1 1 2 2 4
30 27 22 21 25 28 28 22 16 11 13 14 11 9 9 10 10 11 12 13 13 12 12 9 10 14 9 10 14 19 19 18 16 16 14 13 12 10 9 8 7 6 6 6 6 5 3 3 3 3 3 4 4 5
22 20 25 27 30 29 23 19 18 9 12 12 12 11 10 11 12 13 14 14 15 15 15 14 9 12 14 21 21 21 22 25 22 18 15 15 15 13 10 9 8 7 7 8 7 6 6 6 5 4 5 6 6 8
25 29 28 30 29 23 16 9 18 17 9 10 11 10 11 12 13 14 15 16 18 20 20 21 20 20 22 23 22 23 23 23 20 22 21 17 16 15 13 11 10 9 8 10 9 8 8 8 8 7 7 7 9 9
27 30 32 28 23 21 12 10 12 8 11 11 9 10 12 13 14 16 17 19 22 24 23 21 20 21 23 23 23 24 25 22 22 19 19 18 18 17 15 13 12 10 9 9 9 8 9 10 10 10 8 9 10 11
30 29 25 22 23 21 13 9 8 9 9 9 9 11 12 13 15 16 17 20 22 16 20 21 21 22 22 23 25 26 26 21 19 18 17 17 18 18 16 14 12 10 8 8 8 8 10 11 11 12 10 11 12 12
24 20 21 19 14 11 9 12 11 10 8 8 10 12 13 14 15 15 14 17 18 19 22 22 19 19 21 23 25 27 23 18 18 16 16 17 17 16 16 14 12 10 8 8 8 9 10 11 12 13 12 11 11 11
20 21 16 11 10 7 9 8 10 9 10 12 13 14 16 17 18 18 19 16 16 17 17 16 17 18 20 22 25 23 18 16 18 16 16 17 16 15 16 14 12 11 9 8 7 9 10 11 11 12 13 13 13 13
16 12 7 9 8 9 7 7 8 10 12 13 15 15 18 19 19 22 23 17 14 14 14 15 17 18 19 21 21 15 12 14 16 15 17 17 16 15 14 12 12 11 10 8 8 9 10 11 12 12 14 14 15 16
8 7 7 7 7 5 5 6 8 11 13 14 15 16 18 18 20 15 20 16 12 13 14 17 19 18 18 18 17 12 12 14 15 15 17 17 16 17 16 14 13 11 11 10 10 10 10 11 11 12 14 15 15 16
6 4 8 6 5 6 8 11 13 14 15 17 18 18 16 10 10 12 12 11 13 16 18 19 18 17 17 16 14 11 11 13 14 15 17 17 17 18 16 13 10 10 11 10 10 11 10 10 11 12 14 15 15 15
6 6 6 6 8 10 12 14 14 15 12 13 14 13 9 9 15 17 20 21 21 22 22 21 18 17 16 14 12 9 7 9 12 15 17 17 17 18 17 15 13 11 12 11 11 14 11 11 12 13 13 14 14 14
8 8 9 10 11 11 11 12 12 14 14 15 17 18 21 21 22 23 24 25 25 25 24 22 19 17 15 14 12 9 8 9 11 13 14 15 15 17 19 16 14 13 11 12 12 14 14 13 12 12 13 14 14 14
9 11 9 9 9 10 10 10 11 12 14 17 19 19 18 17 20 23 24 24 23 23 22 21 19 18 16 14 13 11 10 10 12 13 15 15 15 16 17 18 16 15 15 14 12 12 14 14 12 12 12 12 13 13
8 8 8 8 9 8 9 10 11 12 12 14 16 17 18 18 16 17 17 17 17 18 19 18 18 19 19 16 14 13 12 12 13 15 16 17 16 16 17 18 18 18 18 17 16 15 13 13 13 14 14 13 12 13
7 7 7 8 8 8 9 9 10 11 12 14 15 16 15 15 14 14 13 12 12 13 13 13 14 17 19 20 16 15 14 13 14 15 16 17 18 17 16 18 19 19 19 19 19 19 19 18 16 15 13 14 14 14
7 7 7 8 9 9 9 11 13 14 12 13 13 13 13 14 13 12 12 11 11 12 12 12 12 13 15 18 19 16 16 14 15 15 16 17 18 18 17 17 19 19 19 18 18 18 17 18 18 18 18 17 17 16
Wind_Direction
234 239 248 258 263 269 270 275 282 286 282 291 301 302 303 308 312 319 326 333 338 339 339 340 338 339 340 342 344 339 344 348 3 20 9 348 331 329 332 325 329 343 350 350 344 343 347 330 346 2 342 343 343 351
241 249 250 257 269 269 272 275 282 284 283 287 301 296 301 306 308 312 317 329 334 335 331 333 337 338 336 334 336 335 338 341 351 5 348 341 325 318 323 327 332 334 319 313 304 294 313 329 333 343 340 342 348 349
240 250 248 257 264 270 274 279 282 282 281 288 295 294 299 302 302 302 315 331 328 330 332 325 331 334 332 334 329 328 327 326 331 326 333 326 328 319 327 316 313 310 305 298 313 304 319 329 333 339 340 347 352 353
240 247 242 249 260 263 272 281 278 277 280 285 290 293 297 296 293 297 319 325 323 325 326 323 326 328 329 328 322 319 318 321 314 317 312 311 309 311 308 309 317 321 305 304 308 303 318 327 331 335 349 352 358 3
235 245 249 261 260 261 270 264 271 274 277 281 288 293 292 291 283 296 319 317 316 323 315 313 318 324 323 318 312 315 320 315 310 306 304 300 308 310 313 319 324 331 318 308 293 302 309 322 331 336 346 358 3 13
235 241 244 250 259 262 264 259 262 268 271 277 285 285 288 278 283 297 315 312 318 319 312 315 305 308 316 307 308 326 324 316 305 295 296 297 307 305 298 299 320 319 316 309 303 288 300 315 330 337 345 355 4 12
238 240 243 246 253 259 260 253 254 262 265 274 279 280 271 267 274 300 300 308 316 314 305 304 291 297 305 289 295 319 323 322 308 295 293 298 303 296 295 295 316 315 312 306 295 286 295 311 326 330 338 354 4 9
231 234 235 238 239 251 255 249 250 257 263 270 275 273 258 262 273 292 296 308 310 293 296 273 292 308 304 294 298 309 312 312 309 289 291 296 297 295 283 307 314 312 307 300 293 290 301 304 321 329 347 355 1 9
226 228 228 222 222 246 248 243 248 254 258 269 271 255 251 260 281 288 301 307 293 270 276 274 289 315 310 307 303 308 306 308 295 286 288 291 290 279 301 311 312 314 311 307 298 297 311 343 344 341 344 350 356 4
226 228 218 212 215 237 240 243 246 248 259 262 249 243 252 270 277 297 305 290 270 271 255 268 268 302 309 311 307 311 298 278 289 290 296 285 290 304 313 314 318 323 327 342 353 22 19 23 356 335 331 341 354 3
225 209 197 193 214 231 236 237 239 249 253 242 235 237 250 270 290 295 253 259 279 282 274 270 296 308 310 307 301 286 268 276 279 280 284 274 290 322 320 328 332 341 3 32 40 28 26 35 349 327 336 350 357 1
210 193 187 195 218 225 229 232 240 243 229 228 225 231 259 273 256 227 216 240 290 264 282 304 310 313 310 306 278 255 244 255 249 273 270 260 309 322 320 334 332 343 12 23 33 46 83 66 11 341 342 357 357 358
189 183 186 202 212 219 226 232 224 217 220 217 186 236 248 234 218 211 212 252 281 296 305 309 314 316 310 298 244 249 244 247 276 249 250 267 307 313 320 327 317 317 336 342 342 348 47 46 358 3 5 7 10 16
181 186 199 204 210 219 224 224 225 219 209 180 183 228 230 221 210 204 273 295 300 303 310 315 317 302 293 268 245 256 248 258 253 245 254 289 303 303 313 315 301 298 299 298 290 288 32 19 13 15 19 18 23 28
181 194 198 207 214 218 217 215 212 206 171 176 208 226 227 218 223 277 291 297 302 307 313 317 314 293 269 244 246 248 246 242 240 246 275 289 289 289 285 289 291 289 286 278 279 291 298 318 341 15 26 16 25 41
188 192 202 210 210 210 211 208 204 174 175 208 225 225 223 229 259 280 291 296 303 306 313 321 304 272 237 238 233 232 240 236 255 281 283 277 272 276 272 273 278 278 274 269 283 286 281 277 281 344 23 34 59 88
193 198 201 205 205 202 204 197 170 173 195 218 233 232 236 255 269 281 291 295 299 301 308 309 286 257 257 240 236 238 252 268 274 277 287 271 261 264 266 263 266 269 268 264 263 263 263 263 257 242 184 107 117 124
198 199 206 205 202 199 198 171 168 200 222 235 235 235 248 260 276 284 290 294 297 296 296 287 271 258 251 256 277 289 282 277 277 278 276 268 256 256 261 259 252 257 261 249 243 243 262 261 240 228 203 173 155 144
198 201 193 192 193 189 166 180 190 216 230 235 234 240 251 265 276 284 291 294 294 291 289 286 270 267 273 286 293 295 281 269 270 273 278 264 251 249 249 254 246 251 249 240 249 256 259 261 252 233 215 189 178 162
190 191 190 192 182 161 176 193 210 224 238 234 234 241 259 269 276 282 289 295 293 289 286 286 293 292 283 287 294 296 295 274 270 264 264 263 245 239 240 243 246 249 261 256 264 266 262 253 232 225 206 192 187 178
185 184 181 168 159 173 188 209 207 227 229 236 242 253 264 274 279 283 290 295 291 297 300 293 291 283 283 288 292 296 297 282 259 265 257 246 238 231 233 237 248 249 254 258 255 260 259 244 225 213 198 191 189 183
180 176 156 158 183 193 210 217 219 225 233 244 256 268 276 281 286 287 292 296 308 310 295 290 290 287 286 290 295 298 294 278 251 258 252 234 229 226 227 232 241 244 249 254 248 250 249 238 217 206 202 188 186 181
156 155 176 182 190 204 228 229 230 231 232 256 270 276 281 285 286 293 292 316 320 307 297 297 293 292 293 297 300 300 289 262 236 245 235 224 222 223 224 228 229 237 242 256 245 239 237 230 213 201 198 200 190 181
167 170 176 188 200 211 225 220 217 231 254 268 275 278 283 286 292 285 288 302 306 312 309 305 304 302 301 303 308 299 277 239 225 233 226 221 220 223 225 220 224 236 238 242 241 232 226 217 209 200 192 196 197 194
165 178 194 203 204 215 219 225 241 263 274 279 279 281 284 288 280 282 290 288 291 306 309 311 313 310 309 313 315 295 259 230 224 229 221 218 217 221 216 214 222 232 226 228 236 231 216 210 207 204 198 196 194 191
180 187 193 190 191 204 225 255 266 275 279 280 281 285 287 282 282 281 284 280 285 299 306 313 316 316 315 317 320 287 252 235 231 233 221 216 214 218 212 217 222 224 218 223 219 217 208 201 199 203 203 199 194 191
171 172 181 187 219 247 259 271 277 280 282 282 285 285 283 270 272 274 280 279 292 297 304 312 313 312 314 315 318 304 266 249 237 223 211 211 213 216 209 211 210 217 213 221 210 197 199 194 194 198 201 202 200 197
182 187 210 245 253 268 273 276 279 283 278 280 278 278 268 260 280 288 289 290 290 292 297 302 302 302 306 307 308 305 282 244 221 210 207 207 213 216 204 205 204 210 208 211 201 189 188 194 194 195 196 195 193 196
213 236 252 262 270 273 275 277 278 282 284 285 288 290 289 294 294 290 288 287 288 289 288 288 287 288 289 293 292 280 262 241 222 209 206 210 217 214 206 202 207 205 206 206 203 196 196 190 183 187 189 188 188 190
246 266 266 266 271 276 278 276 284 289 292 293 294 296 302 302 295 292 292 291 289 286 283 280 274 269 273 274 279 273 255 238 226 219 211 208 212 216 211 205 204 204 203 202 201 201 196 196 196 188 189 187 184 185
252 253 257 263 270 275 279 286 289 292 294 296 300 304 306 308 305 299 298 296 290 286 285 281 270 261 255 261 260 261 252 239 229 224 221 220 221 219 219 219 218 214 207 204 200 200 202 198 197 198 198 199 199 197
240 246 252 259 265 274 279 285 293 298 297 296 299 301 302 304 308 310 310 309 307 306 302 291 274 259 248 245 253 253 255 249 239 231 226 225 226 227 223 222 222 222 224 225 222 215 207 204 206 208 210 210 210 212
242 251 259 268 274 280 288 297 303 305 304 297 290 294 298 301 302 306 307 308 311 312 309 303 293 275 258 245 241 245 243 246 246 239 233 231 230 230 227 223 222 221 221 220 220 221 222 221 220 219 220 221 222 224